Location: Blackfoot
(53.5367°N, 112.7800°W)
Time: 09:11:57
(UTC-07:00)

Amateur Radio Satellites - All Passes

Search period start: 04 December 2016 08:41
Search period end: 05 December 2016 08:41
Location: Blackfoot, 53.5367°N, 112.7800°W

Satellite Date Start Highest point End Downlink Frequencies (MHz)
Time Altitude Azimuth
UWE-3 04 Dec 08:42:36 08:46:34 31° 94° (E) 08:50:23 435.000/436.395/437.385
GOMX 1 04 Dec 08:43:28 08:46:42 16° 309° (NW) 08:49:59 467.674
SEEDS 04 Dec 08:54:40 08:58:53 89° 276° (W) 09:03:04 437.485
UNISAT 6 04 Dec 08:57:51 09:02:15 41° 66° (ENE) 09:06:36 437.425
CINEMA 3 04 Dec 09:00:00 09:04:43 45° 294° (WNW) 09:09:14 145.822/145.860
PRISM 04 Dec 09:03:37 09:07:35 50° 259° (W) 09:11:37 437.425
DOVE 4 04 Dec 09:04:16 09:08:00 20° 306° (NW) 09:11:43 437.250
BEESAT 3 04 Dec 09:06:19 09:09:24 21° 341° (NNW) 09:12:30 437.485
COMPASS 1 04 Dec 09:09:07 09:13:18 89° 103° (ESE) 09:17:28 437.405
AIST 1 04 Dec 09:14:13 09:15:07 11° 281° (WNW) 09:16:00
NOAA 18 04 Dec 09:17:17 09:21:40 24° 307° (NW) 09:26:00 137.9125
RS-15 04 Dec 09:22:08 09:34:06 84° 130° (SE) 09:46:32 29.354- 29.394
AO-7 04 Dec 09:23:09 09:26:33 13° 351° (N) 09:29:57 29.400- 29.500
CUTE-I 04 Dec 09:26:38 09:29:32 15° 313° (NW) 09:32:25 437.470
Cosmos 2499 04 Dec 09:26:56 09:32:22 17° 39° (NE) 09:37:39 435.465 / 435.565
TIGRISAT 04 Dec 09:28:11 09:32:51 68° 72° (ENE) 09:37:29 435.000
ZACube-1 04 Dec 09:28:19 09:32:34 53° 100° (E) 09:36:41 437.345
ANTELSAT 04 Dec 09:29:05 09:33:46 73° 72° (ENE) 09:38:25 437.575/2403.000
BEESAT 2 04 Dec 09:30:45 09:33:59 23° 339° (NNW) 09:37:13 435.950
CUBEBUG 2 04 Dec 09:31:54 09:36:24 66° 288° (WNW) 09:40:43 437.445
FUNcube-1 04 Dec 09:37:14 09:41:30 60° 102° (ESE) 09:45:39 145.935
HUMSAT D 04 Dec 09:39:32 09:42:01 15° 88° (E) 09:44:29 437.325/437.525
YUBILEINY 04 Dec 09:41:37 09:45:26 14° 295° (WNW) 09:49:14 435.215
CUTE 1.7 + AOD 2 04 Dec 09:43:32 09:47:01 26° 298° (WNW) 09:50:30 437.475
JAS-2 04 Dec 09:44:18 09:49:50 35° 61° (ENE) 09:54:51 435.910
Cubesat XI-IV 04 Dec 09:53:12 09:54:26 11° 319° (NW) 09:55:39 437.490
DELFI C3 04 Dec 09:57:48 10:01:32 38° 97° (E) 10:05:15 145.870
BUGSAT 1 04 Dec 09:58:34 09:59:44 11° 50° (NE) 10:00:56 437.445
AIST 2 04 Dec 10:00:29 10:04:37 80° 134° (SE) 10:08:50 435.215
CANX-2 04 Dec 10:01:37 10:04:24 17° 303° (WNW) 10:07:11 2200.000
NANOSAT C BR1 04 Dec 10:02:43 10:06:09 24° 60° (ENE) 10:09:36 145.865
HO-68 04 Dec 10:04:24 10:11:06 43° 303° (WNW) 10:17:48 435.675
AO-85 04 Dec 10:05:33 10:09:35 47° 36° (NE) 10:13:24 145.980
QB50P2 04 Dec 10:06:16 10:09:57 28° 62° (ENE) 10:13:38 145.880/145.840
POLYITAN 1 04 Dec 10:06:54 10:10:33 27° 62° (ENE) 10:14:12 437.675
Cosmos 2504 04 Dec 10:09:37 10:14:45 17° 292° (WNW) 10:19:47 435.465 / 435.565
Oscar 11 04 Dec 10:10:34 10:14:52 71° 288° (WNW) 10:19:09 145.826/435.025
CUSAT 1 04 Dec 10:13:31 10:16:31 59° 101° (E) 10:19:09 437.405
Cosmos 2491 04 Dec 10:16:25 10:23:26 26° 309° (NW) 10:30:28 435.465 / 435.565
AAUSAT CUBESAT 2 04 Dec 10:16:51 10:20:26 28° 296° (WNW) 10:23:59 437.432
UWE-3 04 Dec 10:19:02 10:23:06 37° 295° (WNW) 10:27:02 435.000/436.395/437.385
QB50P1 04 Dec 10:20:18 10:24:12 35° 65° (ENE) 10:28:06 145.935-145.965
GONETS M04 04 Dec 10:22:13 10:29:21 27° 53° (NE) 10:36:27
DUCHIFAT 1 04 Dec 10:25:28 10:29:19 34° 64° (ENE) 10:33:11 145.980
SEEDS 04 Dec 10:31:38 10:33:59 15° 305° (NW) 10:36:20 437.485
UNISAT 6 04 Dec 10:34:48 10:39:03 33° 265° (W) 10:43:15 437.425
DANDE 04 Dec 10:38:40 10:42:41 35° 99° (E) 10:45:52 436.750
CINEMA 3 04 Dec 10:39:55 10:40:40 10° 315° (NW) 10:41:24 145.822/145.860
POPSAT HIP 1 04 Dec 10:41:17 10:45:27 51° 69° (ENE) 10:49:38 437.405
BEESAT 3 04 Dec 10:45:44 10:48:19 16° 4° (N) 10:50:56 437.485
COMPASS 1 04 Dec 10:45:55 10:48:17 15° 304° (NW) 10:50:39 437.405
Oscar 19 04 Dec 10:53:13 10:55:53 14° 48° (NE) 10:58:34 437.125/150
ZACube-1 04 Dec 11:05:09 11:08:34 23° 300° (WNW) 11:11:54 437.345
TIGRISAT 04 Dec 11:06:34 11:09:59 20° 271° (W) 11:13:25 435.000
CUBEBUG 1 04 Dec 11:06:49 11:09:05 14° 86° (E) 11:11:19 437.445
ANTELSAT 04 Dec 11:07:41 11:10:59 19° 271° (W) 11:14:16 437.575/2403.000
CUBEBUG 2 04 Dec 11:10:11 11:12:10 13° 309° (NW) 11:14:07 437.445
BEESAT 2 04 Dec 11:10:25 11:13:03 17° 3° (N) 11:15:43 435.950
AO-7 04 Dec 11:11:44 11:16:01 15° 19° (NNE) 11:20:19 29.400- 29.500
VELOX 1 04 Dec 11:13:25 11:14:33 11° 84° (E) 11:15:41 145.980
HUMSAT D 04 Dec 11:14:03 11:18:08 71° 288° (WNW) 11:22:11 437.325/437.525
FUNcube-1 04 Dec 11:14:09 11:17:23 21° 301° (WNW) 11:20:32 145.935
Cosmos 2499 04 Dec 11:19:37 11:28:10 50° 67° (ENE) 11:36:11 435.465 / 435.565
JAS-2 04 Dec 11:28:35 11:34:49 54° 259° (W) 11:40:24 435.910
BUGSAT 1 04 Dec 11:30:05 11:34:15 58° 70° (ENE) 11:38:28 437.445
DELFI C3 04 Dec 11:32:52 11:36:14 27° 297° (WNW) 11:39:38 145.870
RS-15 04 Dec 11:35:55 11:47:50 56° 340° (NNW) 12:00:01 29.354- 29.394
NANOSAT C BR1 04 Dec 11:37:27 11:41:37 52° 260° (W) 11:45:50 145.865
AIST 2 04 Dec 11:39:55 11:43:33 28° 334° (NNW) 11:47:14 435.215
QB50P2 04 Dec 11:41:31 11:45:36 42° 262° (W) 11:49:43 145.880/145.840
POLYITAN 1 04 Dec 11:42:04 11:46:11 44° 261° (W) 11:50:20 437.675
AO-85 04 Dec 11:46:15 11:49:51 31° 239° (WSW) 11:53:20 145.980
Oscar 11 04 Dec 11:48:21 11:50:16 13° 308° (NW) 11:52:11 145.826/435.025
HO-68 04 Dec 11:53:18 11:57:08 15° 327° (NNW) 12:00:59 435.675
ESTCUBE 1 04 Dec 11:55:34 12:00:00 52° 100° (E) 12:04:24 437.505/2401.250
50 SAT 04 Dec 11:55:34 11:58:09 19° 92° (E) 12:00:42 437.505
QB50P1 04 Dec 11:56:04 11:59:58 34° 264° (W) 12:03:54 145.935-145.965
SPROUT 04 Dec 11:59:29 12:02:40 20° 90° (E) 12:05:50 437.525
DUCHIFAT 1 04 Dec 12:01:06 12:04:59 34° 264° (W) 12:08:55 145.980
AISAT 04 Dec 12:10:27 12:14:37 35° 97° (E) 12:18:43 437.250
Gurwin Techsat 1B 04 Dec 12:10:45 12:15:15 29° 58° (ENE) 12:19:46 435.225
POPSAT HIP 1 04 Dec 12:18:05 12:21:30 23° 268° (W) 12:24:57 437.405
GONETS M04 04 Dec 12:18:52 12:27:39 84° 78° (ENE) 12:36:24
DANDE 04 Dec 12:22:09 12:25:24 22° 291° (WNW) 12:28:07 436.750
BEESAT 3 04 Dec 12:23:36 12:27:07 28° 28° (NNE) 12:30:37 437.485
PCSat 04 Dec 12:27:10 12:32:16 44° 118° (ESE) 12:37:24 145.827
Oscar 19 04 Dec 12:29:13 12:34:16 61° 69° (ENE) 12:39:22 437.125/150
CUBEBUG 1 04 Dec 12:41:33 12:46:02 88° 114° (ESE) 12:50:29 437.445
VELOX 1 04 Dec 12:47:22 12:51:51 71° 103° (ESE) 12:56:19 145.980
BEESAT 2 04 Dec 12:48:34 12:52:03 27° 26° (NNE) 12:55:32 435.950
HUMSAT D 04 Dec 12:51:29 12:53:01 12° 307° (NW) 12:54:34 437.325/437.525
ITAMSAT 1 04 Dec 12:55:08 12:58:54 21° 53° (NE) 13:02:42 435.822/435.867
AO-7 04 Dec 12:59:17 13:06:23 33° 45° (NE) 13:13:30 29.400- 29.500
BUGSAT 1 04 Dec 13:06:50 13:09:59 20° 270° (W) 13:13:10 437.445
DX 1 04 Dec 13:07:03 13:11:26 63° 103° (ESE) 13:15:48 434.975-435.025
Cosmos 2499 04 Dec 13:13:02 13:21:25 52° 272° (W) 13:29:18 435.465 / 435.565
UKube-1 04 Dec 13:17:56 13:22:16 61° 102° (ESE) 13:26:34 .
JAS-2 04 Dec 13:20:20 13:21:06 10° 279° (W) 13:21:51 435.910
AIST 2 04 Dec 13:20:21 13:23:15 18° 358° (N) 13:26:10 435.215
TISAT 1 04 Dec 13:27:50 13:31:28 27° 94° (E) 13:35:04 437.305
50 SAT 04 Dec 13:28:16 13:31:41 44° 291° (WNW) 13:35:05 437.505
ESTCUBE 1 04 Dec 13:32:51 13:36:34 26° 300° (WNW) 13:40:17 437.505/2401.250
SPROUT 04 Dec 13:34:43 13:38:59 60° 290° (WNW) 13:43:13 437.525
AISAT 04 Dec 13:46:58 13:51:04 36° 296° (WNW) 13:55:10 437.250
Gurwin Techsat 1B 04 Dec 13:49:38 13:54:55 61° 259° (WSW) 14:00:12 435.225
RS-15 04 Dec 13:51:06 14:03:07 52° 13° (NNE) 14:15:07 29.354- 29.394
BEESAT 3 04 Dec 14:01:06 14:05:06 71° 229° (SW) 14:09:04 437.485
SWISSCUBE 04 Dec 14:04:29 14:07:40 18° 88° (E) 14:10:51 437.505
BEESAT 04 Dec 14:08:44 14:11:55 17° 88° (E) 14:15:04 436.000
Oscar 19 04 Dec 14:09:48 14:14:00 25° 269° (W) 14:18:14 437.125/150
PCSat 04 Dec 14:10:25 14:15:41 49° 320° (NW) 14:20:59 145.827
GONETS M04 04 Dec 14:16:32 14:23:33 28° 282° (WNW) 14:30:34
CUBEBUG 1 04 Dec 14:18:55 14:21:45 17° 305° (NW) 14:24:33 437.445
VELOX 1 04 Dec 14:24:36 14:27:53 20° 303° (WNW) 14:31:08 145.980
BEESAT 2 04 Dec 14:26:13 14:30:16 80° 229° (SW) 14:34:19 435.950
ITAMSAT 1 04 Dec 14:32:33 14:37:47 89° 252° (WSW) 14:43:03 435.822/435.867
ITUPSAT 1 04 Dec 14:34:35 14:38:40 27° 94° (E) 14:42:43 437.325
DX 1 04 Dec 14:43:54 14:47:16 22° 302° (WNW) 14:50:37 434.975-435.025
AO-7 04 Dec 14:50:02 14:58:22 89° 248° (WSW) 15:06:47 29.400- 29.500
AUBIESAT-1 04 Dec 14:51:10 14:55:16 30° 100° (E) 14:59:15 437.475
UKube-1 04 Dec 14:54:38 14:57:58 22° 302° (WNW) 15:01:17 .
HORYU 2 04 Dec 14:58:05 15:00:05 13° 50° (NE) 15:02:05 437.375
AIST 2 04 Dec 14:59:32 15:03:02 24° 22° (NNE) 15:06:31 435.215
M-CUBED/EXP-1 PRIME 04 Dec 15:01:38 15:06:08 43° 104° (ESE) 15:10:33 437.505
TISAT 1 04 Dec 15:03:15 15:07:16 42° 293° (WNW) 15:11:16 437.305
GOMX 1 04 Dec 15:08:24 15:08:28 10° 44° (NE) 15:08:34 467.674
Cosmos 2499 04 Dec 15:08:41 15:12:20 13° 296° (WNW) 15:15:55 435.465 / 435.565
SPROUT 04 Dec 15:12:43 15:14:04 11° 310° (NW) 15:15:25 437.525
BRITE-PL 04 Dec 15:19:37 15:22:50 20° 55° (NE) 15:26:12 437.365/2234.400
MOZHAYETS 4 04 Dec 15:30:08 15:33:59 26° 93° (E) 15:37:49
Gurwin Techsat 1B 04 Dec 15:34:34 15:36:00 11° 279° (W) 15:37:27 435.225
BEESAT 3 04 Dec 15:40:34 15:42:01 12° 248° (WSW) 15:43:28 437.485
SWISSCUBE 04 Dec 15:41:17 15:46:04 78° 288° (WNW) 15:50:48 437.505
BEESAT 04 Dec 15:45:31 15:50:18 79° 289° (WNW) 15:55:03 436.000
NOAA 18 04 Dec 15:51:31 15:54:19 14° 44° (NE) 15:57:07 137.9125
CUTE-I 04 Dec 15:56:01 15:59:32 18° 50° (NE) 16:03:04 437.470
PCSat 04 Dec 15:56:05 16:00:20 22° 344° (NNW) 16:04:35 145.827
RS-15 04 Dec 16:04:50 16:17:20 85° 44° (NE) 16:29:34 29.354- 29.394
BEESAT 2 04 Dec 16:05:24 16:07:26 14° 247° (WSW) 16:09:29 435.950
ITUPSAT 1 04 Dec 16:12:08 16:16:45 50° 293° (WNW) 16:21:21 437.325
KKS-1 04 Dec 16:13:01 16:16:57 29° 94° (E) 16:20:51 437.445
ITAMSAT 1 04 Dec 16:14:43 16:18:01 17° 273° (W) 16:21:20 435.822/435.867
Cubesat XI-IV 04 Dec 16:20:21 16:24:39 25° 55° (NE) 16:28:58 437.490
Cosmos 2491 04 Dec 16:22:00 16:28:48 24° 50° (NE) 16:35:33 435.465 / 435.565
NOAA 15 04 Dec 16:23:20 16:27:43 28° 57° (ENE) 16:32:07 137.62
STARS 04 Dec 16:24:14 16:27:30 20° 90° (E) 16:30:43 437.465
AUBIESAT-1 04 Dec 16:25:21 16:29:49 48° 300° (WNW) 16:34:12 437.475
HORYU 2 04 Dec 16:31:24 16:35:50 65° 70° (ENE) 16:40:18 437.375
M-CUBED/EXP-1 PRIME 04 Dec 16:36:15 16:40:31 36° 303° (WNW) 16:44:45 437.505
AIST 2 04 Dec 16:37:54 16:42:09 75° 44° (NE) 16:46:23 435.215
GOMX 1 04 Dec 16:40:52 16:45:16 43° 66° (ENE) 16:50:01 467.674
LilacSat-2 04 Dec 16:41:33 16:44:39 24° 63° (ENE) 16:47:46 437.200
AO-7 04 Dec 16:45:37 16:52:17 26° 271° (W) 16:59:01 29.400- 29.500
O/OREOS (USA 219) 04 Dec 16:50:24 16:54:45 45° 112° (ESE) 16:59:05 437.305
CINEMA 3 04 Dec 16:56:25 16:58:42 13° 49° (NE) 17:00:59 145.822/145.860
BRITE-PL 04 Dec 16:56:27 17:00:48 73° 257° (WSW) 17:05:30 437.365/2234.400
DOVE 4 04 Dec 17:00:04 17:04:27 33° 62° (ENE) 17:09:02 437.250
CUBESAT XI-V 04 Dec 17:04:53 17:09:10 35° 96° (E) 17:13:26 437.345
HO-68 04 Dec 17:06:11 17:11:40 24° 45° (NE) 17:17:10 435.675
MOZHAYETS 4 04 Dec 17:07:00 17:11:24 49° 292° (WNW) 17:15:47
SWISSCUBE 04 Dec 17:20:17 17:23:09 16° 308° (NW) 17:26:00 437.505
BEESAT 04 Dec 17:24:29 17:27:23 16° 308° (NW) 17:30:16 436.000
NOAA 18 04 Dec 17:28:30 17:33:52 53° 65° (ENE) 17:39:17 137.9125
CUTE 1.7 + AOD 2 04 Dec 17:32:57 17:34:48 13° 53° (NE) 17:36:38 437.475
CUTE-I 04 Dec 17:33:27 17:38:49 76° 71° (ENE) 17:44:12 437.470
PCSat 04 Dec 17:41:30 17:45:35 21° 11° (N) 17:49:40 145.827
CANX-2 04 Dec 17:49:16 17:52:12 19° 58° (ENE) 17:55:09 2200.000
KKS-1 04 Dec 17:49:24 17:53:41 43° 294° (WNW) 17:57:55 437.445
ITUPSAT 1 04 Dec 17:52:12 17:53:34 11° 314° (NW) 17:54:56 437.325
Cubesat XI-IV 04 Dec 17:58:54 18:04:17 73° 256° (WSW) 18:09:42 437.490
STARS 04 Dec 17:59:51 18:04:16 64° 290° (WNW) 18:08:38 437.465
ISS 04 Dec 18:01:20 18:03:56 21° 149° (SSE) 18:06:33 145.825
AUBIESAT-1 04 Dec 18:01:26 18:03:15 12° 319° (NW) 18:05:04 437.475
NOAA 15 04 Dec 18:01:59 18:07:11 62° 257° (WSW) 18:12:25 137.62
AAUSAT CUBESAT 2 04 Dec 18:05:47 18:06:28 10° 51° (NE) 18:07:08 437.432
HORYU 2 04 Dec 18:09:33 18:12:49 20° 270° (W) 18:16:07 437.375
UWE-3 04 Dec 18:12:21 18:13:57 12° 50° (NE) 18:15:33 435.000/436.395/437.385
LilacSat-2 04 Dec 18:15:06 18:18:47 42° 262° (W) 18:22:28 437.200
AIST 2 04 Dec 18:17:03 18:20:12 21° 244° (WSW) 18:23:21 435.215
RS-15 04 Dec 18:17:50 18:28:52 41° 251° (WSW) 18:39:39 29.354- 29.394
SEEDS 04 Dec 18:17:53 18:21:02 21° 60° (ENE) 18:24:10 437.485
Cosmos 2491 04 Dec 18:18:37 18:27:24 75° 76° (ENE) 18:36:07 435.465 / 435.565
GOMX 1 04 Dec 18:19:22 18:23:32 32° 267° (W) 18:27:59 467.674
STRAND 1 04 Dec 18:26:28 18:28:27 12° 83° (E) 18:30:26 437.568
CINEMA 3 04 Dec 18:29:59 18:34:51 57° 69° (ENE) 18:39:48 145.822/145.860
O/OREOS (USA 219) 04 Dec 18:30:10 18:34:19 33° 312° (NW) 18:38:27 437.305
COMPASS 1 04 Dec 18:31:34 18:34:36 20° 59° (ENE) 18:37:38 437.405
DOVE 4 04 Dec 18:37:20 18:42:00 46° 263° (W) 18:46:58 437.250
BRITE-PL 04 Dec 18:39:17 18:40:21 11° 279° (W) 18:41:26 437.365/2234.400
CUBESAT XI-V 04 Dec 18:42:18 18:46:35 38° 295° (WNW) 18:50:54 437.345
MOZHAYETS 4 04 Dec 18:47:10 18:47:33 10° 313° (NW) 18:47:56
HO-68 04 Dec 18:51:16 18:58:26 77° 67° (ENE) 19:05:39 435.675
YUBILEINY 04 Dec 18:54:44 19:02:42 42° 85° (E) 19:10:44 435.215
ZACube-1 04 Dec 18:55:36 18:58:28 17° 55° (NE) 19:01:18 437.345
CUBEBUG 2 04 Dec 18:59:27 19:03:44 35° 64° (ENE) 19:08:01 437.445
FUNcube-1 04 Dec 19:04:01 19:07:04 18° 57° (ENE) 19:10:05 145.935
CUTE 1.7 + AOD 2 04 Dec 19:05:43 19:09:55 72° 73° (ENE) 19:14:08 437.475
Cosmos 2504 04 Dec 19:08:08 19:14:58 28° 77° (ENE) 19:22:02 435.465 / 435.565
NOAA 18 04 Dec 19:09:52 19:14:48 32° 265° (W) 19:19:47 137.9125
CUTE-I 04 Dec 19:15:26 19:19:28 21° 271° (W) 19:23:32 437.470
CANX-2 04 Dec 19:23:26 19:27:38 69° 257° (WSW) 19:31:51 2200.000
PCSat 04 Dec 19:25:17 19:30:25 40° 35° (NE) 19:35:32 145.827
Oscar 11 04 Dec 19:35:51 19:39:33 29° 63° (ENE) 19:43:17 145.826/435.025
ISS 04 Dec 19:36:46 19:40:01 53° 168° (SSE) 19:43:16 145.825
AAUSAT CUBESAT 2 04 Dec 19:37:04 19:41:06 59° 71° (ENE) 19:45:10 437.432
STARS 04 Dec 19:37:56 19:39:48 12° 310° (NW) 19:41:39 437.465
Cubesat XI-IV 04 Dec 19:42:35 19:45:20 14° 276° (W) 19:48:04 437.490
UWE-3 04 Dec 19:44:57 19:49:31 56° 70° (ENE) 19:54:02 435.000/436.395/437.385
NOAA 15 04 Dec 19:46:32 19:48:04 11° 278° (W) 19:49:36 137.62
SEEDS 04 Dec 19:52:17 19:56:23 58° 259° (WSW) 20:00:32 437.485
STRAND 1 04 Dec 20:03:30 20:08:38 69° 103° (ESE) 20:13:43 437.568
COMPASS 1 04 Dec 20:05:43 20:09:48 60° 259° (WSW) 20:13:55 437.405
CINEMA 3 04 Dec 20:08:09 20:12:18 26° 269° (W) 20:16:32 145.822/145.860
AIST 1 04 Dec 20:09:35 20:13:43 45° 94° (E) 20:17:54
O/OREOS (USA 219) 04 Dec 20:13:49 20:15:09 11° 336° (NNW) 20:16:30 437.305
Cosmos 2491 04 Dec 20:16:09 20:23:32 33° 280° (W) 20:30:56 435.465 / 435.565
SO-50 04 Dec 20:23:16 20:26:38 19° 115° (ESE) 20:29:57 436.795
ZACube-1 04 Dec 20:29:36 20:34:11 90° 252° (WSW) 20:38:42 437.345
CUBEBUG 2 04 Dec 20:35:50 20:40:19 40° 263° (W) 20:44:46 437.445
HUMSAT D 04 Dec 20:36:17 20:39:47 26° 62° (ENE) 20:43:14 437.325/437.525
CUSAT 1 04 Dec 20:36:49 20:39:59 76° 77° (ENE) 20:44:01 437.405
FUNcube-1 04 Dec 20:38:15 20:42:48 81° 256° (WSW) 20:47:17 145.935
PRISM 04 Dec 20:39:33 20:41:55 15° 88° (E) 20:44:16 437.425
HO-68 04 Dec 20:40:49 20:46:52 29° 269° (W) 20:52:59 435.675
CUTE 1.7 + AOD 2 04 Dec 20:43:39 20:46:16 16° 272° (W) 20:48:53 437.475
DELFI C3 04 Dec 20:49:13 20:53:01 52° 71° (ENE) 20:56:53 145.870
YUBILEINY 04 Dec 20:50:42 20:59:16 60° 289° (WNW) 21:07:58 435.215
Cosmos 2504 04 Dec 20:58:50 21:07:20 87° 281° (W) 21:16:18 435.465 / 435.565
DANDE 04 Dec 21:08:29 21:10:57 34° 72° (ENE) 21:13:37 436.750
PCSat 04 Dec 21:08:44 21:14:05 59° 238° (WSW) 21:19:24 145.827
Oscar 11 04 Dec 21:11:28 21:15:35 42° 262° (W) 21:19:42 145.826/435.025
ISS 04 Dec 21:13:05 21:16:21 58° 188° (S) 21:19:38 145.825
AAUSAT CUBESAT 2 04 Dec 21:14:03 21:16:57 19° 270° (W) 21:19:53 437.432
UWE-3 04 Dec 21:22:33 21:26:17 23° 269° (W) 21:30:00 435.000/436.395/437.385
ESTCUBE 1 04 Dec 21:26:14 21:29:15 18° 55° (NE) 21:32:17 437.505/2401.250
AISAT 04 Dec 21:40:11 21:42:16 13° 51° (NE) 21:44:20 437.250
STRAND 1 04 Dec 21:43:20 21:47:25 25° 304° (WNW) 21:51:30 437.568
AIST 1 04 Dec 21:47:56 21:51:32 25° 294° (WNW) 21:55:12
SO-50 04 Dec 22:01:48 22:06:34 89° 323° (NW) 22:11:16 436.795
CUBEBUG 1 04 Dec 22:08:14 22:11:48 25° 60° (ENE) 22:15:26 437.445
ZACube-1 04 Dec 22:08:40 22:11:07 14° 274° (W) 22:13:32 437.345
HUMSAT D 04 Dec 22:11:10 22:15:13 45° 261° (W) 22:19:15 437.325/437.525
PRISM 04 Dec 22:13:35 22:17:45 78° 287° (WNW) 22:21:54 437.425
VELOX 1 04 Dec 22:15:28 22:18:55 23° 58° (ENE) 22:22:22 145.980
FUNcube-1 04 Dec 22:17:45 22:19:45 13° 275° (W) 22:21:44 145.935
UNISAT 6 04 Dec 22:19:41 22:23:49 35° 96° (E) 22:27:49 437.425
DELFI C3 04 Dec 22:25:18 22:28:10 19° 269° (W) 22:31:03 145.870
JAS-2 04 Dec 22:32:13 22:34:27 13° 83° (E) 22:36:41 435.910
DX 1 04 Dec 22:33:52 22:37:04 20° 57° (ENE) 22:40:16 434.975-435.025
50 SAT 04 Dec 22:36:53 22:39:37 22° 63° (ENE) 22:42:24 437.505
UKube-1 04 Dec 22:43:57 22:47:02 19° 56° (ENE) 22:50:08 .
ISS 04 Dec 22:49:41 22:52:30 26° 208° (SSW) 22:55:19 145.825
TIGRISAT 04 Dec 22:50:01 22:54:28 61° 102° (ESE) 22:58:46 435.000
ANTELSAT 04 Dec 22:51:05 22:55:34 66° 102° (ESE) 22:59:54 437.575/2403.000
YUBILEINY 04 Dec 22:52:26 22:58:23 20° 316° (NW) 23:04:24 435.215
DANDE 04 Dec 22:52:43 22:53:24 11° 268° (W) 22:54:05 436.750
PCSat 04 Dec 22:54:29 22:56:24 12° 258° (WSW) 22:58:17 145.827
Cosmos 2504 04 Dec 22:54:54 23:02:07 29° 306° (NW) 23:09:36 435.465 / 435.565
SPROUT 04 Dec 22:58:35 23:02:27 33° 64° (ENE) 23:06:22 437.525
ESTCUBE 1 04 Dec 23:01:03 23:05:33 82° 257° (WSW) 23:10:04 437.505/2401.250
AISAT 04 Dec 23:13:32 23:17:57 68° 71° (ENE) 23:22:23 437.250
NANOSAT C BR1 04 Dec 23:16:07 23:18:56 17° 89° (E) 23:21:44 145.865
QB50P2 04 Dec 23:20:17 23:23:32 21° 91° (E) 23:26:45 145.880/145.840
POLYITAN 1 04 Dec 23:20:55 23:24:05 20° 90° (E) 23:27:14 437.675
QB50P1 04 Dec 23:34:08 23:37:45 26° 93° (E) 23:41:19 145.935-145.965
GONETS M04 04 Dec 23:34:38 23:40:37 21° 73° (ENE) 23:46:34
O/OREOS (USA 219) 04 Dec 23:36:18 23:38:31 13° 29° (NNE) 23:40:42 437.305
DUCHIFAT 1 04 Dec 23:38:35 23:42:07 25° 93° (E) 23:45:36 145.980
SO-50 04 Dec 23:43:25 23:47:35 30° 337° (NNW) 23:51:41 436.795
CUBEBUG 1 04 Dec 23:43:35 23:47:51 51° 260° (W) 23:52:11 437.445
PRISM 04 Dec 23:50:20 23:52:23 14° 307° (NW) 23:54:26 437.425
VELOX 1 04 Dec 23:50:40 23:55:02 61° 258° (WSW) 23:59:27 145.980
POPSAT HIP 1 04 Dec 23:55:17 23:59:19 39° 97° (E) 00:03:17 437.405
UNISAT 6 04 Dec 23:56:27 00:00:32 35° 296° (WNW) 00:04:31 437.425
Cosmos 2499 05 Dec 00:04:02 00:11:28 33° 80° (E) 00:19:03 435.465 / 435.565
DX 1 05 Dec 00:08:30 00:12:50 68° 256° (WSW) 00:17:13 434.975-435.025
50 SAT 05 Dec 00:09:27 00:12:46 38° 262° (W) 00:16:06 437.505
AUBIESAT-1 05 Dec 00:09:35 00:12:35 19° 48° (NE) 00:15:42 437.475
ITUPSAT 1 05 Dec 00:12:33 00:14:55 14° 49° (NE) 00:17:18 437.325
JAS-2 05 Dec 00:15:22 00:20:36 75° 105° (ESE) 00:25:53 435.910
UKube-1 05 Dec 00:18:20 00:22:38 71° 256° (WSW) 00:26:59 .
M-CUBED/EXP-1 PRIME 05 Dec 00:20:01 00:23:29 25° 52° (NE) 00:27:08 437.505
TISAT 1 05 Dec 00:25:03 00:29:07 45° 67° (ENE) 00:33:12 437.305
TIGRISAT 05 Dec 00:27:21 00:30:47 22° 302° (WNW) 00:34:10 435.000
ANTELSAT 05 Dec 00:28:31 00:31:52 21° 303° (WNW) 00:35:09 437.575/2403.000
SPROUT 05 Dec 00:34:25 00:38:22 35° 263° (W) 00:42:23 437.525
Oscar 19 05 Dec 00:35:44 00:38:13 13° 84° (E) 00:40:42 437.125/150
BUGSAT 1 05 Dec 00:40:49 00:44:50 41° 98° (E) 00:48:48 437.445
ESTCUBE 1 05 Dec 00:41:11 00:43:07 12° 275° (W) 00:45:02 437.505/2401.250
NANOSAT C BR1 05 Dec 00:50:53 00:55:08 68° 288° (WNW) 00:59:20 145.865
AISAT 05 Dec 00:51:47 00:54:53 18° 271° (W) 00:58:01 437.250
QB50P2 05 Dec 00:55:29 00:59:41 55° 290° (WNW) 01:03:49 145.880/145.840
POLYITAN 1 05 Dec 00:56:03 01:00:15 58° 290° (WNW) 01:04:24 437.675
Cosmos 2504 05 Dec 00:57:26 00:59:30 11° 336° (NNW) 01:01:34 435.465 / 435.565
MOZHAYETS 4 05 Dec 01:05:03 01:06:02 11° 48° (NE) 01:07:02
QB50P1 05 Dec 01:09:38 01:13:43 44° 293° (WNW) 01:17:44 145.935-145.965
DUCHIFAT 1 05 Dec 01:13:57 01:18:01 45° 292° (WNW) 01:22:02 145.980
O/OREOS (USA 219) 05 Dec 01:14:46 01:19:07 45° 52° (NE) 01:23:25 437.305
SWISSCUBE 05 Dec 01:16:31 01:21:00 41° 64° (ENE) 01:25:28 437.505
BEESAT 05 Dec 01:20:43 01:25:10 41° 65° (ENE) 01:29:39 436.000
SO-50 05 Dec 01:25:48 01:29:21 21° 1° (N) 01:32:52 436.795
GONETS M04 05 Dec 01:27:19 01:36:00 76° 96° (E) 01:44:42
POPSAT HIP 1 05 Dec 01:31:16 01:35:01 30° 297° (WNW) 01:38:43 437.405
AUBIESAT-1 05 Dec 01:42:09 01:46:24 89° 264° (W) 01:50:56 437.475
KKS-1 05 Dec 01:43:56 01:45:30 12° 49° (NE) 01:47:03 437.445
ITUPSAT 1 05 Dec 01:47:11 01:51:55 64° 70° (ENE) 01:56:40 437.325
M-CUBED/EXP-1 PRIME 05 Dec 01:53:27 01:57:36 61° 252° (WSW) 02:02:05 437.505
Cosmos 2499 05 Dec 01:55:11 02:03:52 77° 284° (WNW) 02:12:51 435.465 / 435.565
UKube-1 05 Dec 01:58:54 01:59:31 10° 276° (W) 02:00:07 .
Gurwin Techsat 1B 05 Dec 01:59:18 02:04:09 34° 95° (E) 02:08:57 435.225
JAS-2 05 Dec 02:01:19 02:05:16 22° 306° (NW) 02:09:12 435.910
TISAT 1 05 Dec 02:01:24 02:04:57 25° 267° (W) 02:08:31 437.305
AO-85 05 Dec 02:06:54 02:09:58 17° 115° (ESE) 02:12:54 145.980
Oscar 19 05 Dec 02:13:16 02:18:29 73° 104° (ESE) 02:23:40 437.125/150
BUGSAT 1 05 Dec 02:16:26 02:20:06 29° 298° (WNW) 02:23:42 437.445
NANOSAT C BR1 05 Dec 02:28:21 02:30:06 12° 308° (NW) 02:31:50 145.865
QB50P2 05 Dec 02:33:47 02:34:35 10° 311° (NW) 02:35:24 145.880/145.840
POLYITAN 1 05 Dec 02:34:08 02:35:11 11° 310° (NW) 02:36:14 437.675
MOZHAYETS 4 05 Dec 02:37:47 02:42:14 51° 68° (ENE) 02:46:41
ITAMSAT 1 05 Dec 02:39:35 02:43:24 20° 89° (E) 02:47:12 435.822/435.867
CUBESAT XI-V 05 Dec 02:39:50 02:42:06 14° 51° (NE) 02:44:21 437.345
AO-7 05 Dec 02:45:13 02:51:12 21° 86° (E) 02:57:09 29.400- 29.500
O/OREOS (USA 219) 05 Dec 02:54:27 02:58:23 30° 253° (WSW) 03:02:17 437.305
SWISSCUBE 05 Dec 02:54:33 02:58:52 34° 264° (W) 03:03:13 437.505
BEESAT 05 Dec 02:58:42 03:03:03 34° 264° (W) 03:07:25 436.000
YUBILEINY 05 Dec 03:00:14 03:02:55 11° 26° (NNE) 03:05:35 435.215
SO-50 05 Dec 03:06:56 03:11:05 31° 25° (NNE) 03:15:09 436.795
KKS-1 05 Dec 03:16:47 03:21:10 57° 69° (ENE) 03:25:36 437.445
AUBIESAT-1 05 Dec 03:19:13 03:21:31 14° 269° (W) 03:23:53 437.475
GONETS M04 05 Dec 03:26:00 03:33:44 34° 301° (WNW) 03:41:31
STARS 05 Dec 03:26:24 03:30:31 38° 65° (ENE) 03:34:39 437.465
ITUPSAT 1 05 Dec 03:26:30 03:30:11 22° 269° (W) 03:33:52 437.325
Gurwin Techsat 1B 05 Dec 03:39:11 03:44:17 48° 295° (WNW) 03:49:22 435.225
AO-85 05 Dec 03:45:05 03:49:52 83° 133° (SE) 03:54:18 145.980
Cosmos 2499 05 Dec 03:51:40 03:58:40 26° 309° (NW) 04:05:49 435.465 / 435.565
Oscar 19 05 Dec 03:53:17 03:57:21 24° 304° (NW) 04:01:26 437.125/150
CUBESAT XI-V 05 Dec 04:14:07 04:18:41 69° 72° (ENE) 04:23:17 437.345
MOZHAYETS 4 05 Dec 04:15:51 04:19:40 25° 268° (W) 04:23:29
ITAMSAT 1 05 Dec 04:18:15 04:23:28 76° 289° (WNW) 04:28:38 435.822/435.867
AO-7 05 Dec 04:37:01 04:45:26 75° 108° (ESE) 04:53:50 29.400- 29.500
GOMX 1 05 Dec 04:38:27 04:39:19 10° 79° (E) 04:40:10 467.674
SO-50 05 Dec 04:47:25 04:52:00 79° 229° (SW) 04:56:30 436.795
Cosmos 2504 05 Dec 04:50:47 04:56:54 20° 43° (NE) 05:02:53 435.465 / 435.565
BRITE-PL 05 Dec 04:53:54 04:58:24 27° 92° (E) 05:03:05 437.365/2234.400
KKS-1 05 Dec 04:54:36 04:58:05 22° 268° (W) 05:01:36 437.445
YUBILEINY 05 Dec 04:55:48 05:03:32 32° 57° (ENE) 05:11:14 435.215
STARS 05 Dec 05:02:56 05:06:56 33° 264° (W) 05:10:58 437.465
Gurwin Techsat 1B 05 Dec 05:21:06 05:23:04 12° 316° (NW) 05:25:03 435.225
AO-85 05 Dec 05:26:42 05:30:44 29° 333° (NNW) 05:34:32 145.980
GONETS M04 05 Dec 05:31:10 05:34:10 12° 332° (NNW) 05:37:11
BEESAT 3 05 Dec 05:34:39 05:37:46 23° 118° (ESE) 05:40:55 437.485
Cosmos 2491 05 Dec 05:35:20 05:40:46 18° 70° (ENE) 05:46:09 435.465 / 435.565
LilacSat-2 05 Dec 05:42:58 05:45:04 14° 88° (E) 05:47:09 437.200
CUTE-I 05 Dec 05:44:48 05:48:30 19° 87° (E) 05:52:12 437.470
NOAA 18 05 Dec 05:45:40 05:48:08 13° 83° (E) 05:50:35 137.9125
STRAND 1 05 Dec 05:47:23 05:51:59 34° 61° (ENE) 05:56:36 437.568
HORYU 2 05 Dec 05:52:17 05:56:38 51° 100° (E) 06:00:58 437.375
CUBESAT XI-V 05 Dec 05:53:17 05:56:33 19° 271° (W) 05:59:51 437.345
ITAMSAT 1 05 Dec 05:58:51 06:02:11 17° 310° (NW) 06:05:30 435.822/435.867
BEESAT 2 05 Dec 06:01:35 06:04:35 21° 117° (ESE) 06:07:38 435.950
Cubesat XI-IV 05 Dec 06:09:53 06:14:29 28° 93° (E) 06:19:02 437.490
AIST 1 05 Dec 06:09:55 06:13:36 25° 65° (ENE) 06:17:16
NOAA 15 05 Dec 06:10:37 06:15:17 31° 94° (E) 06:19:57 137.62
GOMX 1 05 Dec 06:13:13 06:18:32 54° 99° (E) 06:23:56 467.674
SO-50 05 Dec 06:29:08 06:31:45 15° 248° (WSW) 06:34:21 436.795
DOVE 4 05 Dec 06:29:20 06:34:17 37° 94° (E) 06:39:08 437.250
AO-7 05 Dec 06:30:15 06:37:44 39° 311° (NW) 06:45:14 29.400- 29.500
BRITE-PL 05 Dec 06:32:01 06:37:12 62° 290° (WNW) 06:42:41 437.365/2234.400
RS-15 05 Dec 06:38:58 06:47:47 25° 99° (E) 06:56:49 29.354- 29.394
Cosmos 2504 05 Dec 06:43:50 06:52:38 58° 70° (ENE) 07:01:02 435.465 / 435.565
YUBILEINY 05 Dec 06:52:34 07:01:25 82° 263° (W) 07:10:16 435.215
CANX-2 05 Dec 07:03:12 07:05:27 14° 87° (E) 07:07:42 2200.000
AO-85 05 Dec 07:09:19 07:12:23 18° 357° (N) 07:15:19 145.980
BEESAT 3 05 Dec 07:11:11 07:15:05 62° 319° (NW) 07:19:03 437.485
LilacSat-2 05 Dec 07:16:02 07:19:50 68° 287° (WNW) 07:23:35 437.200
CUTE-I 05 Dec 07:23:53 07:29:16 85° 288° (WNW) 07:34:36 437.470
NOAA 18 05 Dec 07:24:19 07:29:53 67° 104° (ESE) 07:35:22 137.9125
STRAND 1 05 Dec 07:26:09 07:31:05 46° 261° (W) 07:36:02 437.568
Cosmos 2491 05 Dec 07:27:15 07:35:56 68° 94° (E) 07:44:35 435.465 / 435.565
HORYU 2 05 Dec 07:29:17 07:32:58 26° 300° (WNW) 07:36:37 437.375
SEEDS 05 Dec 07:30:31 07:33:07 16° 88° (E) 07:35:42 437.485
PRISM 05 Dec 07:34:28 07:37:49 25° 61° (ENE) 07:41:12 437.425
BEESAT 2 05 Dec 07:38:04 07:42:01 68° 317° (NW) 07:46:03 435.950
COMPASS 1 05 Dec 07:43:02 07:45:25 15° 87° (E) 07:47:47 437.405
AIST 1 05 Dec 07:47:12 07:51:26 47° 266° (W) 07:55:40
Cubesat XI-IV 05 Dec 07:49:38 07:54:54 57° 293° (WNW) 08:00:07 437.490
NOAA 15 05 Dec 07:50:13 07:55:20 52° 294° (WNW) 08:00:25 137.62
UNISAT 6 05 Dec 07:50:28 07:52:44 14° 51° (NE) 07:55:00 437.425
GOMX 1 05 Dec 07:51:39 07:56:24 33° 298° (WNW) 08:01:15 467.674
CINEMA 3 05 Dec 07:55:22 08:00:15 58° 100° (E) 08:04:54 145.822/145.860
HO-68 05 Dec 07:59:33 08:06:26 45° 98° (E) 08:13:17 435.675
DOVE 4 05 Dec 08:07:01 08:12:03 44° 294° (WNW) 08:17:01 437.250
BRITE-PL 05 Dec 08:11:59 08:14:49 15° 309° (NW) 08:17:45 437.365/2234.400
ZACube-1 05 Dec 08:13:40 08:15:07 11° 84° (E) 08:16:33 437.345
TIGRISAT 05 Dec 08:19:19 08:22:45 21° 57° (ENE) 08:26:09 435.000
CUTE 1.7 + AOD 2 05 Dec 08:19:50 08:24:01 60° 101° (E) 08:28:12 437.475
CUBEBUG 2 05 Dec 08:20:18 08:24:15 29° 93° (E) 08:28:04 437.445
AIST 2 05 Dec 08:20:23 08:23:11 18° 115° (ESE) 08:26:00 435.215
ANTELSAT 05 Dec 08:20:23 08:23:55 22° 58° (ENE) 08:27:26 437.575/2403.000
FUNcube-1 05 Dec 08:21:33 08:23:28 13° 85° (E) 08:25:21 145.935
AO-7 05 Dec 08:23:32 08:28:20 17° 337° (NNW) 08:33:09 29.400- 29.500
